IGO8451 VOMM-VIDP

Flight info

Callsign IGO8451
Flight time 2h 23m
Altitude 35000
Route KAMGU2B KAMGU Q24 BAVOX BAVOX6C
Aircraft A21N/M-SDE2E3FGHIRWXY/LB1

Departure

Time 2026-04-24 06:33
Airport Chennai International Airport (VOMM)

Arrival

Time 2026-04-24 08:56
Airport Indira Gandhi International Airport (VIDP)
Time Latitude Longitude Altitude Speed Heading
2026-04-24 06:07 12.98438 80.16568 56 ft 0 kts 159°
2026-04-24 06:22 12.98449 80.16564 48 ft 2 kts 159°
2026-04-24 06:22 12.98464 80.16558 48 ft 2 kts 159°
2026-04-24 06:23 12.98480 80.16552 50 ft 2 kts 159°
2026-04-24 06:23 12.98495 80.16546 50 ft 2 kts 159°
2026-04-24 06:23 12.98508 80.16540 49 ft 2 kts 119°
2026-04-24 06:23 12.98511 80.16533 50 ft 0 kts 83°
2026-04-24 06:27 12.98513 80.16545 51 ft 4 kts 78°
2026-04-24 06:27 12.98533 80.16600 50 ft 13 kts 69°
2026-04-24 06:28 12.98575 80.16716 57 ft 18 kts 69°
2026-04-24 06:28 12.98663 80.16753 52 ft 19 kts 336°
2026-04-24 06:28 12.98772 80.16776 55 ft 18 kts 70°
2026-04-24 06:28 12.98824 80.16925 52 ft 27 kts 72°
2026-04-24 06:29 12.98903 80.17126 58 ft 33 kts 70°
2026-04-24 06:29 12.98983 80.17303 54 ft 24 kts 68°
2026-04-24 06:29 12.99055 80.17489 55 ft 32 kts 70°
2026-04-24 06:29 12.99128 80.17734 54 ft 38 kts 68°
2026-04-24 06:30 12.99177 80.17792 60 ft 2 kts 12°
2026-04-24 06:30 12.99192 80.17795 61 ft 4 kts 10°
2026-04-24 06:30 12.99200 80.17786 55 ft 2 kts 314°
2026-04-24 06:30 12.99205 80.17753 56 ft 4 kts 265°
2026-04-24 06:31 12.99196 80.17731 57 ft 6 kts 249°
2026-04-24 06:31 12.99209 80.17689 58 ft 0 kts 322°
2026-04-24 06:32 12.99217 80.17684 55 ft 7 kts 325°
2026-04-24 06:32 12.99291 80.17629 58 ft 18 kts 285°
2026-04-24 06:32 12.99259 80.17541 56 ft 20 kts 249°
2026-04-24 06:32 12.99121 80.17183 55 ft 93 kts 248°
2026-04-24 06:33 12.98791 80.16329 62 ft 163 kts 244°
2026-04-24 06:33 12.98375 80.15098 616 ft 195 kts 256°
2026-04-24 06:33 12.98379 80.13672 1647 ft 207 kts 281°
2026-04-24 06:33 12.99143 80.12449 2789 ft 206 kts 320°
2026-04-24 06:34 13.00434 80.12000 3959 ft 193 kts
2026-04-24 06:34 13.01769 80.12179 4900 ft 195 kts 13°
2026-04-24 06:34 13.03102 80.12425 5754 ft 193 kts 13°
2026-04-24 06:34 13.04428 80.12583 6529 ft 198 kts 11°
2026-04-24 06:35 13.05904 80.12810 6730 ft 229 kts 14°
2026-04-24 06:35 13.07460 80.13218 6742 ft 231 kts 23°
2026-04-24 06:35 13.08923 80.13903 6413 ft 230 kts 34°
2026-04-24 06:35 13.10173 80.14857 6221 ft 214 kts 42°
2026-04-24 06:36 13.11483 80.15500 6060 ft 223 kts
2026-04-24 06:36 13.13183 80.15308 6282 ft 262 kts 351°
2026-04-24 06:36 13.15032 80.14965 6978 ft 277 kts 355°
2026-04-24 06:36 13.16987 80.14794 7801 ft 285 kts
2026-04-24 06:37 13.18974 80.14772 8876 ft 286 kts
2026-04-24 06:37 13.20972 80.14781 9919 ft 288 kts
2026-04-24 06:37 13.22993 80.14781 10842 ft 292 kts
2026-04-24 06:37 13.25036 80.14757 11788 ft 295 kts
2026-04-24 06:38 13.27103 80.14702 12720 ft 299 kts
2026-04-24 06:38 13.29181 80.14425 13640 ft 305 kts 350°
2026-04-24 06:38 13.31251 80.13853 14408 ft 311 kts 346°
2026-04-24 06:38 13.33336 80.13163 15126 ft 318 kts 343°
2026-04-24 06:39 13.35412 80.12408 15846 ft 324 kts 342°
2026-04-24 06:39 13.37546 80.11587 16564 ft 330 kts 341°
2026-04-24 06:39 13.39706 80.10720 17275 ft 337 kts 340°
2026-04-24 06:39 13.41902 80.09818 17962 ft 343 kts 339°
2026-04-24 06:40 13.44133 80.08887 18589 ft 349 kts 339°
2026-04-24 06:40 13.46391 80.07934 19232 ft 353 kts 338°
2026-04-24 06:40 13.48667 80.06966 19877 ft 356 kts 338°
2026-04-24 06:40 13.50970 80.05982 20518 ft 360 kts 337°
2026-04-24 06:41 13.53284 80.04992 21211 ft 362 kts 336°
2026-04-24 06:41 13.55612 80.03991 21851 ft 365 kts 336°
2026-04-24 06:41 13.57972 80.02972 22515 ft 368 kts 336°
2026-04-24 06:41 13.60347 80.01945 23165 ft 371 kts 335°
2026-04-24 06:42 13.62733 80.00911 23717 ft 375 kts 335°
2026-04-24 06:42 13.65150 79.99861 24208 ft 378 kts 335°
2026-04-24 06:42 13.67587 79.98803 24696 ft 383 kts 335°
2026-04-24 06:42 13.70053 79.97733 25171 ft 387 kts 334°
2026-04-24 06:43 13.72544 79.96652 25649 ft 391 kts 334°
2026-04-24 06:43 13.75062 79.95560 26128 ft 395 kts 334°
2026-04-24 06:43 13.77606 79.94456 26597 ft 399 kts 334°
2026-04-24 06:43 13.80176 79.93339 27073 ft 403 kts 333°
2026-04-24 06:44 13.82773 79.92210 27536 ft 407 kts 333°
2026-04-24 06:44 13.85396 79.91070 27990 ft 411 kts 333°
2026-04-24 06:44 13.88043 79.89919 28436 ft 415 kts 333°
2026-04-24 06:44 13.90712 79.88757 28884 ft 419 kts 333°
2026-04-24 06:45 13.93410 79.87583 29334 ft 422 kts 333°
2026-04-24 06:45 13.96132 79.86397 29771 ft 426 kts 332°
2026-04-24 06:45 13.98875 79.85202 30164 ft 430 kts 332°
2026-04-24 06:45 14.01639 79.83998 30557 ft 432 kts 332°
2026-04-24 06:46 14.04418 79.82788 30940 ft 435 kts 332°
2026-04-24 06:46 14.07216 79.81570 31329 ft 438 kts 332°
2026-04-24 06:46 14.10029 79.80346 31720 ft 440 kts 332°
2026-04-24 06:46 14.12861 79.79112 32078 ft 444 kts 331°
2026-04-24 06:47 14.15714 79.77869 32436 ft 444 kts 331°
2026-04-24 06:47 14.18516 79.76654 32646 ft 434 kts 331°
2026-04-24 06:47 14.21312 79.75436 32747 ft 441 kts 330°
2026-04-24 06:48 14.27037 79.72921 32799 ft 453 kts 331°
2026-04-24 06:48 14.32816 79.70392 32808 ft 449 kts 331°
2026-04-24 06:49 14.38609 79.67853 32814 ft 463 kts 331°
2026-04-24 06:49 14.41613 79.66528 32817 ft 476 kts 331°
2026-04-24 06:49 14.44698 79.65167 32815 ft 489 kts 331°
2026-04-24 06:49 14.47867 79.63769 32814 ft 502 kts 331°
2026-04-24 06:50 14.51104 79.62343 32816 ft 509 kts 331°
2026-04-24 06:50 14.57580 79.59512 32812 ft 501 kts 332°
2026-04-24 06:51 14.63990 79.56716 32818 ft 500 kts 331°
2026-04-24 06:51 14.70416 79.53903 32815 ft 502 kts 331°
2026-04-24 06:52 14.76852 79.51083 32820 ft 500 kts 331°
2026-04-24 06:52 14.83269 79.48266 32825 ft 501 kts 331°
2026-04-24 06:53 14.89642 79.45464 32826 ft 501 kts 331°
2026-04-24 06:53 14.96113 79.42753 32830 ft 504 kts 337°
2026-04-24 06:54 15.02904 79.40801 32826 ft 508 kts 341°
2026-04-24 06:54 15.09783 79.39059 32827 ft 509 kts 341°
2026-04-24 06:55 15.16673 79.37374 32832 ft 508 kts 341°
2026-04-24 06:55 15.23556 79.35705 32833 ft 508 kts 341°
2026-04-24 06:56 15.30450 79.34037 32838 ft 509 kts 341°
2026-04-24 06:56 15.37343 79.32369 32839 ft 507 kts 341°
2026-04-24 06:57 15.44205 79.30706 32840 ft 507 kts 341°
2026-04-24 06:57 15.51031 79.29049 32844 ft 507 kts 341°
2026-04-24 06:58 15.57895 79.27381 32847 ft 506 kts 341°
2026-04-24 06:58 15.64747 79.25716 32851 ft 505 kts 341°
2026-04-24 06:59 15.71598 79.24047 32851 ft 506 kts 341°
2026-04-24 06:59 15.78448 79.22378 32854 ft 505 kts 341°
2026-04-24 07:00 15.85277 79.20714 32863 ft 504 kts 341°
2026-04-24 07:00 15.92112 79.19044 32867 ft 505 kts 341°
2026-04-24 07:01 15.98954 79.17379 32865 ft 505 kts 341°
2026-04-24 07:01 16.05801 79.15727 32875 ft 505 kts 341°
2026-04-24 07:02 16.12636 79.14078 32874 ft 504 kts 341°
2026-04-24 07:02 16.19469 79.12430 32865 ft 504 kts 341°
2026-04-24 07:03 16.26312 79.10777 32879 ft 505 kts 341°
2026-04-24 07:03 16.33152 79.09124 32876 ft 504 kts 341°
2026-04-24 07:04 16.39986 79.07472 32875 ft 504 kts 341°
2026-04-24 07:04 16.46824 79.05816 32882 ft 505 kts 341°
2026-04-24 07:05 16.53661 79.04160 32867 ft 504 kts 341°
2026-04-24 07:05 16.59344 79.02783 32878 ft 504 kts 341°
2026-04-24 07:06 16.66181 79.01124 32875 ft 505 kts 341°
2026-04-24 07:06 16.73019 78.99462 32888 ft 504 kts 341°
2026-04-24 07:07 16.79851 78.97801 32885 ft 504 kts 341°
2026-04-24 07:07 16.90116 78.95303 32889 ft 505 kts 341°
2026-04-24 07:08 16.96957 78.93638 32891 ft 505 kts 341°
2026-04-24 07:08 17.03803 78.91969 32895 ft 506 kts 341°
2026-04-24 07:09 17.10655 78.90298 32900 ft 505 kts 341°
2026-04-24 07:09 17.17499 78.88630 32900 ft 505 kts 341°
2026-04-24 07:10 17.24349 78.86959 32901 ft 506 kts 340°
2026-04-24 07:10 17.31209 78.85281 32907 ft 506 kts 340°
2026-04-24 07:11 17.38057 78.83604 32909 ft 505 kts 340°
2026-04-24 07:11 17.44850 78.81939 32914 ft 505 kts 340°
2026-04-24 07:12 17.51698 78.80273 32916 ft 505 kts 340°
2026-04-24 07:12 17.58542 78.78616 32918 ft 504 kts 340°
2026-04-24 07:13 17.65417 78.76951 32922 ft 504 kts 340°
2026-04-24 07:13 17.72197 78.75306 32920 ft 504 kts 340°
2026-04-24 07:14 17.79031 78.73646 32915 ft 503 kts 340°
2026-04-24 07:14 17.85847 78.71988 32915 ft 503 kts 340°
2026-04-24 07:15 17.92664 78.70326 32912 ft 503 kts 340°
2026-04-24 07:15 17.99493 78.68660 32910 ft 503 kts 340°
2026-04-24 07:16 18.06303 78.66997 32911 ft 503 kts 340°
2026-04-24 07:16 18.13130 78.65323 32912 ft 503 kts 340°
2026-04-24 07:17 18.19952 78.63639 32910 ft 503 kts 340°
2026-04-24 07:17 18.26738 78.61962 32906 ft 503 kts 340°
2026-04-24 07:18 18.33550 78.60276 32904 ft 503 kts 339°
2026-04-24 07:18 18.40377 78.58582 32904 ft 504 kts 339°
2026-04-24 07:19 18.47198 78.56890 32906 ft 503 kts 339°
2026-04-24 07:19 18.54008 78.55198 32903 ft 504 kts 339°
2026-04-24 07:20 18.60839 78.53497 32906 ft 504 kts 339°
2026-04-24 07:20 18.67647 78.51803 32900 ft 502 kts 339°
2026-04-24 07:21 18.74457 78.50105 32900 ft 503 kts 339°
2026-04-24 07:21 18.81269 78.48405 32889 ft 503 kts 339°
2026-04-24 07:22 18.88069 78.46709 32890 ft 502 kts 339°
2026-04-24 07:22 18.94861 78.45011 32890 ft 502 kts 339°
2026-04-24 07:23 19.01663 78.43308 32883 ft 502 kts 339°
2026-04-24 07:23 19.08463 78.41606 32879 ft 501 kts 339°
2026-04-24 07:24 19.15248 78.39897 32879 ft 501 kts 339°
2026-04-24 07:24 19.22019 78.38144 32880 ft 501 kts 338°
2026-04-24 07:25 19.28744 78.36380 32877 ft 500 kts 338°
2026-04-24 07:25 19.35484 78.34604 32874 ft 499 kts 338°
2026-04-24 07:26 19.42250 78.32815 32876 ft 500 kts 338°
2026-04-24 07:26 19.48989 78.31033 32872 ft 498 kts 338°
2026-04-24 07:27 19.55721 78.29252 32878 ft 498 kts 338°
2026-04-24 07:27 19.62459 78.27483 32876 ft 499 kts 338°
2026-04-24 07:28 19.69155 78.25728 32866 ft 497 kts 338°
2026-04-24 07:28 19.75866 78.23970 32853 ft 496 kts 338°
2026-04-24 07:29 19.82580 78.22208 32854 ft 497 kts 338°
2026-04-24 07:29 19.89301 78.20442 32851 ft 498 kts 338°
2026-04-24 07:30 19.96032 78.18672 32856 ft 498 kts 338°
2026-04-24 07:30 20.02761 78.16901 32850 ft 498 kts 338°
2026-04-24 07:31 20.09483 78.15132 32848 ft 498 kts 338°
2026-04-24 07:31 20.16215 78.13356 32846 ft 498 kts 338°
2026-04-24 07:32 20.22944 78.11581 32849 ft 498 kts 338°
2026-04-24 07:32 20.29656 78.09808 32845 ft 498 kts 338°
2026-04-24 07:33 20.36364 78.08034 32844 ft 498 kts 338°
2026-04-24 07:33 20.43089 78.06254 32848 ft 498 kts 338°
2026-04-24 07:34 20.49809 78.04473 32846 ft 498 kts 338°
2026-04-24 07:34 20.56595 78.02704 32845 ft 499 kts 339°
2026-04-24 07:35 20.63317 78.01030 32849 ft 499 kts 339°
2026-04-24 07:35 20.70089 77.99365 32850 ft 499 kts 339°
2026-04-24 07:36 20.76854 77.97705 32852 ft 499 kts 339°
2026-04-24 07:36 20.83634 77.96041 32855 ft 499 kts 340°
2026-04-24 07:37 20.90397 77.94380 32857 ft 498 kts 340°
2026-04-24 07:37 20.97147 77.92720 32857 ft 498 kts 340°
2026-04-24 07:38 21.03846 77.91070 32855 ft 498 kts 340°
2026-04-24 07:38 21.10607 77.89402 32863 ft 497 kts 340°
2026-04-24 07:39 21.17338 77.87741 32866 ft 496 kts 340°
2026-04-24 07:39 21.24063 77.86079 32864 ft 496 kts 340°
2026-04-24 07:40 21.30785 77.84417 32863 ft 495 kts 340°
2026-04-24 07:40 21.37482 77.82759 32875 ft 494 kts 340°
2026-04-24 07:41 21.44190 77.81095 32882 ft 494 kts 340°
2026-04-24 07:41 21.50878 77.79435 32872 ft 492 kts 340°
2026-04-24 07:42 21.57560 77.77776 32890 ft 492 kts 341°
2026-04-24 07:42 21.64184 77.76128 32892 ft 492 kts 341°
2026-04-24 07:43 21.70841 77.74473 32889 ft 490 kts 341°
2026-04-24 07:43 21.77483 77.72819 32884 ft 489 kts 341°
2026-04-24 07:44 21.84106 77.71169 32881 ft 489 kts 342°
2026-04-24 07:44 21.90739 77.69515 32884 ft 488 kts 342°
2026-04-24 07:45 21.97338 77.67871 32877 ft 487 kts 342°
2026-04-24 07:45 22.03943 77.66217 32876 ft 487 kts 342°
2026-04-24 07:46 22.10527 77.64522 32875 ft 485 kts 342°
2026-04-24 07:46 22.17082 77.62819 32875 ft 484 kts 342°
2026-04-24 07:47 22.23627 77.61110 32869 ft 484 kts 342°
2026-04-24 07:47 22.30164 77.59405 32865 ft 482 kts 342°
2026-04-24 07:48 22.36643 77.57713 32869 ft 482 kts 343°
2026-04-24 07:48 22.43161 77.56011 32855 ft 481 kts 343°
2026-04-24 07:49 22.49662 77.54314 32856 ft 481 kts 343°
2026-04-24 07:49 22.56172 77.52613 32850 ft 481 kts 343°
2026-04-24 07:50 22.62681 77.50910 32848 ft 481 kts 343°
2026-04-24 07:50 22.69178 77.49210 32844 ft 480 kts 343°
2026-04-24 07:51 22.75668 77.47509 32844 ft 480 kts 343°
2026-04-24 07:51 22.82170 77.45804 32839 ft 481 kts 343°
2026-04-24 07:52 22.88668 77.44098 32836 ft 480 kts 343°
2026-04-24 07:52 22.95158 77.42393 32834 ft 480 kts 343°
2026-04-24 07:53 23.01655 77.40684 32835 ft 481 kts 343°
2026-04-24 07:53 23.07057 77.39261 32833 ft 480 kts 343°
2026-04-24 07:54 23.13539 77.37554 32835 ft 480 kts 344°
2026-04-24 07:54 23.20034 77.35844 32832 ft 480 kts 344°
2026-04-24 07:55 23.26540 77.34275 32832 ft 480 kts 350°
2026-04-24 07:55 23.33198 77.33619 32831 ft 481 kts 354°
2026-04-24 07:56 23.39889 77.33205 32823 ft 481 kts 355°
2026-04-24 07:56 23.46565 77.32854 32818 ft 479 kts 355°
2026-04-24 07:57 23.53229 77.32523 32814 ft 480 kts 355°
2026-04-24 07:57 23.59889 77.32201 32812 ft 479 kts 355°
2026-04-24 07:58 23.66492 77.31887 32813 ft 477 kts 356°
2026-04-24 07:58 23.73136 77.31571 32810 ft 477 kts 356°
2026-04-24 07:59 23.79769 77.31258 32807 ft 477 kts 356°
2026-04-24 07:59 23.86393 77.30946 32811 ft 476 kts 356°
2026-04-24 08:00 23.93008 77.30635 32806 ft 476 kts 356°
2026-04-24 08:00 23.99633 77.30323 32811 ft 476 kts 356°
2026-04-24 08:01 24.06249 77.30011 32804 ft 475 kts 356°
2026-04-24 08:01 24.12854 77.29702 32805 ft 475 kts 356°
2026-04-24 08:02 24.19466 77.29391 32801 ft 476 kts 356°
2026-04-24 08:02 24.26075 77.29081 32806 ft 475 kts 356°
2026-04-24 08:03 24.32677 77.28771 32808 ft 475 kts 356°
2026-04-24 08:03 24.39273 77.28460 32806 ft 475 kts 356°
2026-04-24 08:04 24.45880 77.28149 32801 ft 474 kts 356°
2026-04-24 08:04 24.52469 77.27838 32815 ft 474 kts 356°
2026-04-24 08:05 24.59017 77.27527 32812 ft 474 kts 356°
2026-04-24 08:05 24.65611 77.27214 32811 ft 474 kts 356°
2026-04-24 08:06 24.72196 77.26915 32806 ft 473 kts 356°
2026-04-24 08:06 24.78828 77.26627 32809 ft 474 kts 356°
2026-04-24 08:07 24.85375 77.26347 32803 ft 474 kts 356°
2026-04-24 08:07 24.91957 77.26065 32798 ft 473 kts 356°
2026-04-24 08:08 24.98539 77.25790 32799 ft 474 kts 356°
2026-04-24 08:09 25.08433 77.25415 32794 ft 474 kts 356°
2026-04-24 08:09 25.15025 77.25174 32792 ft 474 kts 356°
2026-04-24 08:10 25.21615 77.24934 32788 ft 475 kts 356°
2026-04-24 08:10 25.28217 77.24694 32788 ft 474 kts 356°
2026-04-24 08:11 25.34804 77.24456 32784 ft 473 kts 356°
2026-04-24 08:11 25.41392 77.24216 32788 ft 474 kts 356°
2026-04-24 08:12 25.47991 77.23975 32786 ft 474 kts 356°
2026-04-24 08:12 25.54575 77.23735 32788 ft 473 kts 356°
2026-04-24 08:13 25.61160 77.23494 32781 ft 474 kts 356°
2026-04-24 08:13 25.67751 77.23253 32786 ft 474 kts 356°
2026-04-24 08:14 25.74335 77.23011 32781 ft 473 kts 356°
2026-04-24 08:14 25.80916 77.22770 32782 ft 474 kts 356°
2026-04-24 08:15 25.87502 77.22528 32777 ft 474 kts 356°
2026-04-24 08:15 25.94088 77.22285 32777 ft 472 kts 356°
2026-04-24 08:16 26.00615 77.22045 32779 ft 473 kts 356°
2026-04-24 08:16 26.07203 77.21802 32777 ft 473 kts 356°
2026-04-24 08:17 26.13777 77.21552 32776 ft 472 kts 355°
2026-04-24 08:17 26.20348 77.21286 32777 ft 473 kts 355°
2026-04-24 08:18 26.26928 77.21014 32781 ft 472 kts 355°
2026-04-24 08:18 26.33493 77.20894 32770 ft 473 kts
2026-04-24 08:18 26.36740 77.21498 32791 ft 477 kts 15°
2026-04-24 08:19 26.39946 77.22443 32790 ft 475 kts
2026-04-24 08:19 26.43232 77.22489 32803 ft 472 kts 353°
2026-04-24 08:19 26.46492 77.22097 32782 ft 471 kts 350°
2026-04-24 08:20 26.52967 77.21156 32772 ft 469 kts 350°
2026-04-24 08:20 26.59457 77.20287 32770 ft 470 kts 351°
2026-04-24 08:21 26.65966 77.19560 32771 ft 470 kts 352°
2026-04-24 08:21 26.72474 77.18958 32772 ft 469 kts 353°
2026-04-24 08:22 26.78991 77.18442 32775 ft 470 kts 354°
2026-04-24 08:22 26.85519 77.17987 32771 ft 470 kts 354°
2026-04-24 08:23 26.92038 77.17577 32766 ft 469 kts 355°
2026-04-24 08:23 26.98557 77.17193 32764 ft 469 kts 355°
2026-04-24 08:24 27.05086 77.16829 32765 ft 470 kts 355°
2026-04-24 08:24 27.11598 77.16478 32760 ft 468 kts 355°
2026-04-24 08:25 27.18104 77.16135 32764 ft 468 kts 355°
2026-04-24 08:25 27.24575 77.15798 32759 ft 469 kts 355°
2026-04-24 08:26 27.31076 77.15464 32759 ft 467 kts 355°
2026-04-24 08:26 27.37564 77.15134 32765 ft 466 kts 356°
2026-04-24 08:27 27.44054 77.14809 32765 ft 466 kts 356°
2026-04-24 08:27 27.47286 77.15064 32778 ft 468 kts 12°
2026-04-24 08:27 27.50348 77.16332 32787 ft 472 kts 28°
2026-04-24 08:27 27.52991 77.18533 32798 ft 476 kts 44°
2026-04-24 08:28 27.55017 77.21491 32795 ft 481 kts 60°
2026-04-24 08:28 27.56264 77.24989 32785 ft 483 kts 76°
2026-04-24 08:28 27.56627 77.28748 32774 ft 484 kts 92°
2026-04-24 08:28 27.56077 77.32482 32772 ft 484 kts 108°
2026-04-24 08:29 27.54742 77.35906 32763 ft 485 kts 116°
2026-04-24 08:29 27.53642 77.39504 32759 ft 486 kts 99°
2026-04-24 08:29 27.53471 77.43275 32757 ft 485 kts 83°
2026-04-24 08:29 27.54231 77.46959 32760 ft 483 kts 66°
2026-04-24 08:30 27.55786 77.50312 32754 ft 482 kts 57°
2026-04-24 08:30 27.57847 77.53267 32752 ft 479 kts 41°
2026-04-24 08:30 27.60501 77.55429 32755 ft 460 kts 24°
2026-04-24 08:30 27.63427 77.56578 32708 ft 434 kts
2026-04-24 08:31 27.66352 77.56669 32564 ft 411 kts 348°
2026-04-24 08:31 27.68990 77.55746 32416 ft 388 kts 328°
2026-04-24 08:31 27.71098 77.53992 32255 ft 368 kts 314°
2026-04-24 08:31 27.72870 77.51984 32026 ft 355 kts 313°
2026-04-24 08:32 27.74544 77.50007 31754 ft 342 kts 312°
2026-04-24 08:32 27.76163 77.48094 31441 ft 331 kts 313°
2026-04-24 08:32 27.77744 77.46253 31051 ft 323 kts 313°
2026-04-24 08:32 27.79318 77.44460 30495 ft 320 kts 314°
2026-04-24 08:33 27.80903 77.42703 29953 ft 317 kts 315°
2026-04-24 08:33 27.82493 77.40990 29358 ft 314 kts 315°
2026-04-24 08:33 27.84093 77.39364 28775 ft 311 kts 319°
2026-04-24 08:33 27.85789 77.37859 28189 ft 309 kts 323°
2026-04-24 08:34 27.87566 77.36510 27622 ft 307 kts 327°
2026-04-24 08:34 27.89403 77.35298 27069 ft 304 kts 330°
2026-04-24 08:34 27.91276 77.34205 26529 ft 302 kts 332°
2026-04-24 08:34 27.93172 77.33207 26000 ft 299 kts 334°
2026-04-24 08:35 27.95077 77.32288 25488 ft 297 kts 336°
2026-04-24 08:35 27.96994 77.31428 24989 ft 295 kts 337°
2026-04-24 08:35 27.98905 77.30617 24498 ft 293 kts 338°
2026-04-24 08:35 28.00810 77.29824 24014 ft 290 kts 336°
2026-04-24 08:36 28.02703 77.29050 23540 ft 288 kts 340°
2026-04-24 08:36 28.04606 77.28356 23023 ft 286 kts 340°
2026-04-24 08:36 28.06496 77.27666 22485 ft 284 kts 340°
2026-04-24 08:36 28.08373 77.26985 21968 ft 282 kts 340°
2026-04-24 08:37 28.10233 77.26312 21453 ft 279 kts 340°
2026-04-24 08:37 28.12076 77.25643 20950 ft 277 kts 340°
2026-04-24 08:37 28.13906 77.24978 20467 ft 274 kts 340°
2026-04-24 08:37 28.15719 77.24319 19979 ft 273 kts 340°
2026-04-24 08:38 28.17494 77.23673 19511 ft 271 kts 340°
2026-04-24 08:38 28.19285 77.23021 19046 ft 269 kts 340°
2026-04-24 08:38 28.21060 77.22375 18588 ft 267 kts 340°
2026-04-24 08:38 28.22825 77.21732 18145 ft 265 kts 340°
2026-04-24 08:39 28.24577 77.21094 17694 ft 264 kts 340°
2026-04-24 08:39 28.26317 77.20460 17191 ft 261 kts 340°
2026-04-24 08:39 28.28044 77.19829 16697 ft 259 kts 340°
2026-04-24 08:39 28.29743 77.19169 16235 ft 257 kts 341°
2026-04-24 08:40 28.31454 77.18585 15767 ft 256 kts 341°
2026-04-24 08:40 28.33199 77.18280 15252 ft 258 kts
2026-04-24 08:40 28.34905 77.18972 14549 ft 270 kts 35°
2026-04-24 08:40 28.36361 77.20334 14096 ft 269 kts 40°
2026-04-24 08:41 28.37713 77.21741 13879 ft 258 kts 41°
2026-04-24 08:41 28.39011 77.23122 13503 ft 254 kts 41°
2026-04-24 08:41 28.40144 77.24626 12984 ft 257 kts 64°
2026-04-24 08:41 28.40564 77.26638 12260 ft 268 kts 94°
2026-04-24 08:42 28.40325 77.28026 11806 ft 273 kts 114°
2026-04-24 08:42 28.38773 77.30182 11235 ft 265 kts 153°
2026-04-24 08:42 28.37080 77.30801 10878 ft 253 kts 182°
2026-04-24 08:42 28.35344 77.30686 10477 ft 248 kts 189°
2026-04-24 08:43 28.34188 77.30529 10211 ft 247 kts 190°
2026-04-24 08:43 28.32482 77.30305 9807 ft 246 kts 184°
2026-04-24 08:43 28.30771 77.30408 9376 ft 247 kts 174°
2026-04-24 08:43 28.29042 77.30705 9036 ft 253 kts 185°
2026-04-24 08:44 28.27404 77.30267 8924 ft 240 kts 217°
2026-04-24 08:44 28.26275 77.28941 8879 ft 234 kts 250°
2026-04-24 08:44 28.25996 77.27175 8865 ft 229 kts 283°
2026-04-24 08:44 28.26648 77.25567 8865 ft 229 kts 316°
2026-04-24 08:45 28.27937 77.24558 8838 ft 230 kts 331°
2026-04-24 08:45 28.29322 77.23688 8791 ft 226 kts 320°
2026-04-24 08:45 28.30363 77.22361 8798 ft 227 kts 299°
2026-04-24 08:45 28.31085 77.20777 8786 ft 225 kts 308°
2026-04-24 08:46 28.32301 77.19679 8836 ft 231 kts 342°
2026-04-24 08:46 28.33893 77.19587 8858 ft 235 kts 16°
2026-04-24 08:46 28.35291 77.20544 8859 ft 243 kts 49°
2026-04-24 08:46 28.36140 77.22160 8810 ft 230 kts 63°
2026-04-24 08:47 28.36810 77.23771 8630 ft 224 kts 59°
2026-04-24 08:47 28.37608 77.25299 8270 ft 225 kts 51°
2026-04-24 08:47 28.38635 77.26611 7766 ft 221 kts 33°
2026-04-24 08:47 28.40045 77.27299 7007 ft 228 kts 358°
2026-04-24 08:48 28.41562 77.26941 6503 ft 221 kts 324°
2026-04-24 08:48 28.42674 77.25868 6317 ft 205 kts 314°
2026-04-24 08:48 28.43727 77.24822 6071 ft 204 kts 335°
2026-04-24 08:48 28.45149 77.24601 5507 ft 210 kts 14°
2026-04-24 08:49 28.46337 77.25467 5545 ft 210 kts 51°
2026-04-24 08:49 28.47007 77.26937 5461 ft 210 kts 63°
2026-04-24 08:49 28.47750 77.28359 5434 ft 207 kts 51°
2026-04-24 08:49 28.48647 77.29555 5373 ft 191 kts 43°
2026-04-24 08:50 28.49603 77.30608 5315 ft 192 kts 39°
2026-04-24 08:50 28.50645 77.31555 5262 ft 192 kts 32°
2026-04-24 08:50 28.51745 77.32422 5259 ft 191 kts 31°
2026-04-24 08:50 28.52837 77.33244 5232 ft 185 kts 29°
2026-04-24 08:51 28.53876 77.34018 5192 ft 176 kts 29°
2026-04-24 08:51 28.55026 77.34464 4988 ft 181 kts 356°
2026-04-24 08:51 28.56153 77.33948 4524 ft 174 kts 313°
2026-04-24 08:51 28.56592 77.32757 4249 ft 164 kts 275°
2026-04-24 08:52 28.56609 77.31452 3998 ft 165 kts 270°
2026-04-24 08:52 28.56574 77.30143 3790 ft 166 kts 269°
2026-04-24 08:52 28.56538 77.28843 3562 ft 167 kts 270°
2026-04-24 08:52 28.56540 77.27684 3389 ft 168 kts 272°
2026-04-24 08:53 28.56564 77.26363 3173 ft 165 kts 273°
2026-04-24 08:53 28.56599 77.25065 2957 ft 164 kts 273°
2026-04-24 08:53 28.56638 77.23758 2749 ft 167 kts 273°
2026-04-24 08:53 28.56672 77.22457 2559 ft 163 kts 273°
2026-04-24 08:54 28.56707 77.21149 2354 ft 165 kts 273°
2026-04-24 08:54 28.56756 77.19864 2208 ft 164 kts 272°
2026-04-24 08:54 28.56794 77.18563 2027 ft 164 kts 271°
2026-04-24 08:54 28.56824 77.17281 1813 ft 158 kts 271°
2026-04-24 08:55 28.56851 77.16050 1600 ft 154 kts 271°
2026-04-24 08:55 28.56881 77.14837 1384 ft 153 kts 271°
2026-04-24 08:55 28.56914 77.13634 1176 ft 152 kts 272°
2026-04-24 08:55 28.56952 77.12435 959 ft 152 kts 272°
2026-04-24 08:56 28.56989 77.11253 759 ft 150 kts 271°
2026-04-24 08:56 28.57027 77.10083 744 ft 148 kts 271°
2026-04-24 08:56 28.57033 77.09216 733 ft 74 kts 271°
2026-04-24 08:56 28.57040 77.08854 728 ft 25 kts 243°
2026-04-24 08:57 28.56939 77.08738 729 ft 18 kts 220°
2026-04-24 08:57 28.56879 77.08680 730 ft 0 kts 221°
2026-04-24 09:00 28.56878 77.08678 730 ft 1 kts 221°
2026-04-24 09:00 28.56857 77.08659 730 ft 9 kts 220°
2026-04-24 09:00 28.56776 77.08584 730 ft 21 kts 215°
2026-04-24 09:00 28.56664 77.08439 729 ft 23 kts 242°
2026-04-24 09:01 28.56562 77.08402 729 ft 17 kts 126°
2026-04-24 09:01 28.56520 77.08563 732 ft 26 kts 105°
2026-04-24 09:01 28.56462 77.08803 736 ft 36 kts 104°
2026-04-24 09:01 28.56406 77.09047 740 ft 11 kts 105°
2026-04-24 09:02 28.56330 77.09097 740 ft 18 kts 189°
2026-04-24 09:02 28.56170 77.09049 739 ft 29 kts 198°
2026-04-24 09:02 28.56135 77.08974 739 ft 9 kts 291°
2026-04-24 09:02 28.56165 77.08861 738 ft 20 kts 270°
2026-04-24 09:03 28.56111 77.08712 736 ft 19 kts 233°
2026-04-24 09:03 28.56015 77.08727 736 ft 11 kts 158°
2026-04-24 09:03 28.56009 77.08730 736 ft 0 kts 158°